This is the latest recevied weather packets stored in our database for station/object KI4KWR-1. If no packets are shown the sender has not sent any weather packets the latest 10 day(s).
| Time | Temp. | Humidity | Pressure | Rain* | Wind** | Luminosity | Snow |
|---|---|---|---|---|---|---|---|
| 1787936403 | 31.67° C | 50% | 989 hPa | 0 mm | - | - | - |
| 1787935504 | 31.11° C | 55% | 988.9 hPa | 0 mm | - | - | - |
| 1787934604 | 30.56° C | 58% | 989 hPa | 0 mm | - | - | - |
| 1787933704 | 30.56° C | 59% | 988.9 hPa | 0 mm | - | - | - |
| 1787932804 | 30.56° C | 60% | 989 hPa | 0 mm | - | - | - |
| 1787931903 | 28.89° C | 64% | 989 hPa | 0 mm | - | - | - |
| 1787931004 | 28.89° C | 65% | 989.1 hPa | 0 mm | - | - | - |
| 1787930113 | 27.78° C | 69% | 989 hPa | 0 mm | - | - | - |
| 1787929206 | 27.22° C | 72% | 988.9 hPa | 0 mm | - | - | - |
| 1787928304 | 26.67° C | 72% | 988.9 hPa | 0 mm | - | - | - |
| 1787927404 | 26.11° C | 76% | 989 hPa | 0 mm | - | - | - |
| 1787926503 | 25° C | 77% | 989 hPa | 0 mm | - | - | - |
| 1787925603 | 24.44° C | 81% | 989 hPa | 0 mm | - | - | - |
| 1787924704 | 23.33° C | 82% | 989 hPa | 0 mm | - | - | - |
| 1787923804 | 23.33° C | 84% | 989 hPa | 0 mm | - | - | - |
| 1787922904 | 22.78° C | 85% | 988.8 hPa | 0 mm | - | - | - |
| 1787922004 | 22.22° C | 87% | 988.5 hPa | 0 mm | - | - | - |
| 1787921103 | 21.67° C | 90% | 988.5 hPa | 0 mm | - | - | - |
| 1787920204 | 20.56° C | 92% | 988.4 hPa | 0 mm | - | - | - |
| 1787919304 | 20° C | 93% | 988.3 hPa | 0 mm | - | - | - |
| 1787918414 | 20° C | 93% | 988.1 hPa | 0 mm | - | - | - |
| 1787917504 | 20° C | 93% | 987.9 hPa | 0 mm | - | - | - |
| 1787916604 | 19.44° C | 93% | 987.7 hPa | 0 mm | - | - | - |
| 1787915704 | 19.44° C | 93% | 987.6 hPa | 0 mm | - | - | - |
| 1787914804 | 19.44° C | 93% | 987.4 hPa | 0 mm | - | - | - |
* Rain latest hour (hover to see other rain measurements)
** Current wind speed in m/s (hover to see current wind gust speed)